Location: Knowlton
(51.2333°N, 1.2667°E)
Time: 02:54:31
(UTC+00:00)

COSMOS 2428 - Visible Passes

Search period start: 05 August 2021 00:00
Search period end: 15 August 2021 00:00
Orbit: 845 x 857 km, 70.9° (Epoch: 04 August)

Date Brightness Start Highest point End Pass type
(mag) Time Alt. Az. Time Alt. Az. Time Alt. Az.
05 Aug 3.1 20:43:24 10° NNW 20:49:02 56° NE 20:53:52 14° SE visible
05 Aug 4.0 22:28:07 10° NW 22:33:02 31° WSW 22:35:52 20° SSW visible
06 Aug 3.0 20:31:16 10° NNW 20:36:54 56° NE 20:42:02 12° SE visible
06 Aug 4.0 22:15:59 10° NW 22:20:54 31° WSW 22:24:03 18° SSW visible
07 Aug 3.0 20:19:08 10° NNW 20:24:45 56° NE 20:30:14 10° SE visible
07 Aug 4.0 22:03:51 10° NW 22:08:45 31° WSW 22:12:15 16° SSW visible
08 Aug 3.0 20:06:59 10° NNW 20:12:37 56° NE 20:18:11 10° SE visible
08 Aug 4.1 21:51:41 10° NW 21:56:36 30° WSW 22:00:30 14° SSW visible
09 Aug 4.1 21:39:33 10° NW 21:44:28 30° WSW 21:48:48 12° SSW visible
10 Aug 4.2 21:27:24 10° NW 21:32:19 30° WSW 21:37:08 10° SSW visible
11 Aug 4.2 21:15:16 10° NW 21:20:10 30° WSW 21:25:02 10° SSW visible
12 Aug 4.2 21:03:08 10° NW 21:08:01 30° WSW 21:12:53 10° SSW visible
13 Aug 4.3 20:50:59 10° NW 20:55:52 30° WSW 21:00:44 10° SSW visible
14 Aug 4.3 20:38:50 10° NW 20:43:43 30° WSW 20:48:34 10° SSW visible
